Flag for U.S.A. Weather past 2 weeks in Dover, Delaware, U.S.A.

Now
67 °F

Clear.


Feels Like: 67 °F
Forecast: 54 / 70 °F
Wind: 9 mph from West

Location: Dover Air Force Base

Current Time: Sep 22, 2014 at 4:33:25 AM

Latest Report: Sep 22, 2014 at 3:58 AM


Visibility: 10 mi

Pressure: 29.76 "Hg

Humidity: 70%

Dew point: 57 °F

Location of DoverLocation

Historic Weather in Dover — Graph

°F

Dover temperature yesterday

Maximum temperature yesterday: 76 °F (at 4:58 PM)
Minimum temperature yesterday: 66 °F (at 6:58 AM)
Average temperature yesterday: 71 °F

Past Weeks' High & Low Weather Summary

 TemperatureHumidityPressure
High88 °F (Sep 11, 4:58 PM)100% (Sep 7, 3:03 AM)30.31 "Hg (Sep 7, 3:03 AM)
Low51 °F (Sep 15, 6:58 AM)39% (Sep 17, 3:58 PM)29.64 "Hg (Sep 21, 5:58 PM)
Average68 °F79%30.08 "Hg
* Reported Sep 7 3:03 AM — Sep 22 2:58 AM, Dover, Weather by CustomWeather, © 2014

Note: Actual official high and low records may vary slightly from our data, if they occured in-between our weather recording intervals... More about our weather records

Advertising

Dover weather history for previous 24 hours

 ConditionsComfort  
Time TempWeatherWind HumidityBarometerVisibility
2:58 AM
Sep 22
68 °FPassing clouds.6 mph78%29.74 "Hg10 mi
1:58 AM69 °FPassing clouds.8 mph85%29.72 "Hg10 mi
12:58 AM69 °FClear.7 mph92%29.70 "Hg10 mi
11:58 PM
Sep 21
69 °FPassing clouds.7 mph88%29.67 "Hg10 mi
10:58 PM71 °FHeavy rain. Passing clouds.10 mph80%29.67 "Hg7 mi
9:58 PM71 °FPassing clouds.9 mph79%29.66 "Hg10 mi
8:58 PM71 °FPassing clouds.8 mph84%29.67 "Hg10 mi
7:58 PM71 °FSunny.2 mph87%29.66 "Hg10 mi
6:58 PM73 °FSunny.2 mph82%29.65 "Hg10 mi
5:58 PM76 °FSunny.6 mph75%29.64 "Hg10 mi
4:58 PM76 °FSunny.5 mph76%29.65 "Hg10 mi
3:58 PM74 °FSunny.6 mph81%29.68 "Hg10 mi
2:58 PM76 °FSunny.6 mph76%29.70 "Hg10 mi
2:03 PM75 °FPartly sunny.6 mph78%29.73 "Hg10 mi
1:58 PM74 °FPartly sunny.5 mph80%29.74 "Hg10 mi
1:03 PM72 °FOvercast.7 mph88%29.77 "Hg10 mi
12:58 PM73 °FOvercast.8 mph85%29.78 "Hg10 mi
11:58 AM71 °FLow clouds.7 mph94%29.80 "Hg10 mi
10:58 AM72 °FLow clouds.8 mph96%29.82 "Hg10 mi
9:58 AM70 °FLow clouds.5 mph100%29.85 "Hg10 mi
8:58 AM68 °FLow clouds.2 mph100%29.86 "Hg8 mi
7:58 AM69 °FLow clouds.8 mph100%29.88 "Hg9 mi
6:58 AM66 °FClear.3 mph100%29.86 "Hg9 mi
5:58 AM68 °FLow clouds.No wind100%29.89 "Hg10 mi
4:58 AM68 °FOvercast.3 mph100%29.91 "Hg10 mi
Weather by CustomWeather, © 2014

See weather overviewHow to use our weather pages